STARLINK-30831, 58153

Orbit data source: Space-Track

STARLINK-30831, 58153 is a payload satellite owned by SpaceX/Seattle (US) in LEO that was launched on Sun, 29 Oct 2023 UTC via an FALCON 9 launch vehicle from the Air Force Western Test Range (AFWTR). Payload-class satellites include a variety of spacecraft equipped with specific instruments for various scientific and technological missions. These include communications satellites like Starlink; space stations such as the ISS; scientific satellites like the Hubble; Earth observation satellites from companies like Planet Labs, Umbra, and HawkEye 360; GPS; miniature CubeSats for education and research; and military/defense satellites.

Loading next visibility...
Identifier
58153, 2023-166D
Orbit
LEO
Country
Flag of USUS
Related business
Manufacturer
SpaceX/Seattle
Mission
Operational Commercial Communications
Bus & Motor
STARLINK V2M, Unknown motor
Mass
730 kg wet, ~700 kg dry
Launch date (UTC)
2023-10-29 (3 years ago)
Launch vehicle
FALCON 9
Launch site
Air Force Western Test Range (AFWTR)
Object type
Payload
Rocket body
Debris
Shape & HBR
Box + 2 Pan, 17.7 m
Radar Cross Section
33.884 m², Large (>1 m²)

Expand to show TLE details & history
Last TLE update: 2 days ago

TLE from 2 days ago
0 STARLINK-30831
1 58153U 23166D   26171.18617849  .00001229  00000-0  51348-4 0  9990
2 58153  53.1612 103.4114 0001373  93.2053 266.9106 15.31706581148877
Epoch: 2026-06-20T04:28Z
TLE epoch observation values (Epoch: 2026-06-20T04:28:05.821Z)
Latitude
0.00001°
Longitude
127.98274°
Altitude
471.672 km
Speed
7.631 km/s
True Right ascension
06h 53m 38s
True Declination
0° 00' 00"
Sunlit
Object was in daylight at epoch
Visualization orbit readout
Latitude
Unknown
Longitude
Unknown
Altitude
Unknown
Speed
Unknown
Apparent Right ascension
Unknown
Apparent Declination
Unknown
Sunlit
N/A
Visualization observer readout
Local Sidereal Time
21:25:22
Azimuth
Unknown
Elevation
Unknown
Doppler factor
Unknown
Orbital elements
Apogee altitude
471.917 km
Perigee altitude
470.036 km
Semi-major axis
6,849.114 km
Eccentricity
0.00014
Inclination
53.1612°
RAAN
103.4114°
Arg. of periapsis
93.2053°
True anomaly
266.89489°
Mean anomaly
266.9106°
Eccentric anomaly
266.90274°
Mean motion
3.82905 °/min
Orbital period
94.02 mins
BSTAR
0.000051348
Loading maneuver chart data...
Computing Atmospheric mass density...
Loading historical data...
Loading historical data...
Loading historical data...
Loading historical data...
Loading historical data...
Loading historical data...
Loading historical data...

Documentation

Showing up to 5 results
|